{"data":{"norad_id":62704,"epoch":"2026-05-25T05:07:56.772192Z","epoch_age_seconds":67314,"freshness":"FRESH","line1":"1 62704U 25009CZ  26145.21385153  .00001081  00000+0  10998-3 0  9990","line2":"2 62704  97.7028 223.6182 0006910 144.6663 215.5016 14.92753099 73890","mean_motion":14.92753099,"eccentricity":0.000691,"inclination_deg":97.7028,"raan_deg":223.6182,"arg_perigee_deg":144.6663,"mean_anomaly_deg":215.5016,"bstar":0.00010998,"rev_number":7389,"period_min":96.466053292045,"perigee_km":584.54113019369,"apogee_km":594.17020506035,"semimajor_km":6967.492667627,"source":"CELESTRAK","updated_at":"2026-05-25T13:38:03.205163Z"}}